#timestamp,LO_Frequency,Hit 
1502175615.5,286046993.8,N
1502175635.3,286046995.9,N
1502175655.2,286046992.1,N
1502175675.0,286046994.1,N
1502175675.9,286046994.1,N
1502175695.7,286046993.7,N
1502175715.6,286046990.9,N
1502175735.4,286046994.8,N
1502175755.2,286046994.1,N
1502175775.1,286046994.3,N
1502175776.0,286046994.3,N
1502175795.8,286046993.8,N
1502175815.6,286046991.8,N
1502175835.5,286046994.3,N
1502175855.3,286046992.8,N
1502175875.1,286046990.3,N
1502175895.9,286046994.2,N
1502175915.7,286046993.9,N
1502175935.5,286046994.2,N
1502175955.4,286046992.7,N
1502175975.2,286046993.8,N
1502175995.0,286046995.7,N
1502175995.9,286046995.7,N
1502176015.8,286046995.5,N
1502176035.6,286046997.0,N
1502176055.4,286046998.9,N
1502176075.3,286046996.6,N
1502176095.1,286047005.4,N
1502176096.0,286047005.4,N
1502176115.8,286047005.1,N
1502176135.6,286047002.1,N
1502176155.5,286046998.6,N
1502176175.3,286046997.6,N
1502176195.1,286046992.0,N
1502176215.9,286046989.1,N
1502176235.7,286046990.2,N
1502176255.5,286046987.2,P
1502176275.4,286046991.7,N
1502176295.2,286046999.3,N
1502176315.0,286047000.9,N
1502176315.9,286047000.9,N
1502176335.8,286047006.6,N
1502176355.6,286047006.6,N
1502176375.4,286047003.9,N
1502176395.3,286047002.2,N
1502176415.1,286046998.3,N
1502176435.8,286047000.6,N
1502176455.7,286047000.2,N
1502176475.5,286046998.1,N
1502176495.3,286047000.8,N
1502176515.2,286046998.4,N
1502176535.9,286046996.5,N
1502176555.7,286046997.6,N
1502176575.5,286046996.9,N
1502176595.4,286046999.0,N
1502176615.2,286046996.9,N
1502176635.0,286046997.3,N
1502176635.9,286046997.3,N
1502176655.8,286046998.9,N
1502176675.6,286047003.6,N
1502176695.4,286047000.1,N
1502176715.3,286047002.6,N
1502176735.1,286047005.7,N
1502176755.8,286047004.6,N
1502176775.7,286047005.2,N
1502176795.5,286047005.3,N
1502176815.3,286047004.7,N
1502176835.2,286047007.3,N
1502176855.9,286047007.9,N
1502176875.7,286047009.5,N
1502176895.6,286047010.2,N
1502176915.4,286047008.6,N
1502176935.2,286047010.5,N
1502176955.1,286047013.4,P
1502176956.0,286047013.4,N
1502176975.8,286047009.2,N
1502176995.6,286047005.1,N
1502177015.5,286047004.9,N
1502177035.3,286047009.0,N
1502177055.1,286047006.9,N
1502177075.2,286047006.4,N
1502177095.9,286047007.4,N
1502177115.7,286047007.6,N
1502177135.6,286047010.5,P
1502177155.4,286047002.2,N
1502177175.2,286047002.9,N
1502177195.1,286047004.2,N
1502177196.0,286047004.2,N
1502177215.8,286046998.9,N
1502177235.6,286046995.8,N
1502177255.4,286046998.3,N
1502177275.3,286047004.3,N
1502177295.1,286047002.5,N
1502177315.8,286047002.8,N
1502177335.7,286047000.1,N
1502177355.5,286047002.5,N
1502177375.3,286047002.5,N
1502177395.2,286046998.4,N
1502177415.9,286046997.4,N
1502177435.7,286046996.0,N
1502177455.6,286046993.5,N
1502177475.4,286046994.4,N
1502177495.2,286046992.3,N
1502177515.1,286046989.6,N
1502177516.0,286046989.6,N
1502177535.8,286046987.2,N
1502177555.6,286046985.0,N
1502177575.5,286046982.8,N
1502177595.3,286046982.3,N
1502177615.1,286046983.1,N
1502177635.9,286046979.9,N
1502177655.7,286046980.1,N
1502177675.5,286046979.2,N
1502177695.3,286046982.5,N
1502177715.2,286046983.1,N
1502177735.0,286046981.8,N
1502177735.9,286046981.8,N
1502177755.8,286046982.4,N
1502177775.6,286046981.6,N
1502177795.4,286046980.7,N
1502177815.2,286046987.8,N
1502177835.1,286046985.9,N
1502177855.8,286046984.5,N
1502177875.6,286046984.6,N
1502177895.5,286046984.3,N
1502177915.3,286046981.6,N
1502177935.1,286046983.5,N
1502177955.9,286046982.9,P
1502177975.7,286046995.8,N
1502177995.5,286046995.1,N
1502178015.4,286046996.2,N
1502178035.2,286046997.9,N
1502178055.0,286046997.5,N
1502178055.9,286046997.5,N
1502178075.1,286046993.6,N
1502178076.0,286046993.6,N
1502178095.8,286046994.8,N
1502178115.6,286046994.8,N
1502178135.5,286046989.8,N
1502178155.3,286046989.7,N
1502178175.1,286046990.5,N
1502178195.9,286046996.3,N
1502178215.7,286046993.5,N
1502178235.5,286046994.0,N
1502178255.3,286046994.0,N
1502178275.2,286046994.5,N
1502178295.0,286046993.2,N
1502178295.9,286046993.2,N
1502178315.7,286046991.5,N
1502178335.6,286046989.0,P
1502178355.4,286046994.3,N
1502178375.3,286046991.7,P
1502178395.0,286046992.0,P
1502178395.9,286046992.0,P
1502178415.8,286047003.5,P
1502178435.6,286047002.8,N
1502178455.4,286047001.2,N
1502178475.3,286047000.1,N
1502178495.1,286047003.9,N
1502178496.0,286047003.9,N
1502178515.8,286047001.8,N
1502178535.9,286047005.7,N
1502178555.7,286047003.5,N
1502178575.6,286047004.0,N
1502178595.4,286047005.1,N
1502178615.2,286047005.2,N
1502178635.0,286047003.1,N
1502178635.9,286047003.1,N
1502178655.8,286047000.0,N
1502178675.6,286047002.4,N
1502178695.4,286047000.0,N
1502178715.3,286046997.5,N
1502178735.1,286046998.9,N
1502178755.9,286046996.7,N
1502178775.7,286046994.4,N
1502178795.5,286046993.4,N
1502178815.3,286046994.1,N
1502178835.2,286046992.4,N
1502178855.0,286046989.0,N
1502178855.9,286046989.0,N
1502178875.7,286046990.8,N
1502178895.6,286046987.3,N
1502178915.4,286046987.0,N
1502178935.2,286046985.9,N
1502178955.1,286046986.3,N
1502178956.0,286046986.3,N
1502178975.8,286046982.4,N
1502178995.6,286046984.4,N
1502179015.5,286046984.1,N
1502179035.3,286046982.2,N
1502179055.1,286046980.5,N
1502179075.9,286046980.7,N
1502179095.7,286046985.7,N
1502179115.5,286046989.8,N
1502179135.4,286046990.7,N
1502179155.2,286046992.4,N
1502179175.0,286046988.1,N
1502179175.9,286046988.1,N
1502179195.7,286046992.8,N
